Regional Weather Roundup
Issued by NWS Jackson, KY

Home | Current Version | Previous Version | Graphics & Text | Print | Product List | Glossary On
Versions: 1 2 3 4 5 6 7 8 9 10 11 12 13 14 15 16 17 18 19 20 21 22 23 24 25 26 27 28 29 30 31 32 33 34 35 36 37 38 39 40 41 42 43 44 45 46 47 48 49 50
000
ASUS43 KJKL 271505
RWRJKL

EAST KENTUCKY HOURLY WEATHER ROUNDUP
NATIONAL WEATHER SERVICE JACKSON KY
1000 AM EST THU NOV 27 2014

NOTE: "FAIR" INDICATES FEW OR NO CLOUDS BELOW 12,000 FEET WITH
NO SIGNIFICANT WEATHER AND/OR OBSTRUCTIONS TO VISIBILITY.

* THESE REPORTS ARE NOT UNDER NWS QUALITY CONTROL AND MAY NOT
  REPORT WEATHER SUCH AS PRECIPITATION AND FOG.

KYZ079-080-083-085-087-088-110-112-115-119-120-271600
...EASTERN KENTUCKY...

CITY           SKY/WX    TMP DP  RH WIND       PRES   REMARKS
JACKSON        CLOUDY    32  27  81 VRB5      30.20R WCI  27
LONDON         CLOUDY    34  28  79 NW7       30.23R WCI  28
SOMERSET*      CLOUDY    32  30  93 NW6       30.29R WCI  26
MONTICELLO*    CLOUDY    34  30  85 NW9       30.31R WCI  27
HARLAN APT*    CLOUDY    34  30  86 NW6       30.19R WCI  29
BLACK MTN*       N/A     23  23 100 N8          N/A  WCI  14
PIKEVILLE APT* CLOUDY    32  30  93 W7        30.18R WCI  26
BIG SANDY*     CLOUDY    33  31  92 NW5       30.19R WCI  28
MOREHEAD APT*  CLOUDY    30  25  80 NW12G17   30.25R HAZE    WCI  21
$$

KYZ035-036-041-042-044-050-067-078-099-271600
...CENTRAL KENTUCKY...

CITY           SKY/WX    TMP DP  RH WIND       PRES   REMARKS
MT STERLING*   CLOUDY    30  27  86 NW8       30.26R WCI  23
FLEMING/MASON* CLOUDY    31  25  81 NW10      30.25R WCI  22
DANVILLE*      CLOUDY    30  28  93 NW10      30.29R WCI  21
RICHMOND*      CLOUDY    30  27  86 NW9       30.26R WCI  22
LEXINGTON      CLOUDY    30  24  78 NW9       30.26R WCI  22
FRANKFORT      CLOUDY    30  22  72 NW10      30.27R WCI  21
$$

KYZ091>093-OHZ055-061-077-WVZ005-015-034-035-042-271600
...SOUTHERN OHIO/WEST VIRGINIA...

CITY           SKY/WX    TMP DP  RH WIND       PRES   REMARKS
COVINGTON      CLOUDY    32  21  64 NW14      30.26R WCI  22
COLUMBUS       FLURRIES  31  26  82 NW10      30.17R WCI  22
DAYTON         MOSUNNY   31  23  72 NW15      30.23R WCI  20
WILMINGTON     LGT SNOW  30  24  78 NW10      30.20R WCI  21
HUNTINGTON     CLOUDY    34  25  69 NW10      30.19R WCI  26
CHARLESTON     CLOUDY    34  29  82 W7        30.15R WCI  28
PINEVILLE*     FLURRIES  36  34  93 MISG      30.15R
BECKLEY        CLOUDY    31  27  85 NW13      30.05R WCI  21
BLUEFIELD      LGT SNOW  32  28  85 NW7       30.04R FOG     WCI  26
$$

VAZ002-007-008-TNZ017-027-036-066-071-271600
...SOUTHWEST VIRGINIA/EAST TENNESSEE...

CITY           SKY/WX    TMP DP  RH WIND       PRES   REMARKS
WISE*          LGT SNOW  32  32 100 NW13      30.11R WCI  22
JONESVILLE*    LGT RAIN  36  32  87 CALM      30.21R
ABINGDON*      LGT SNOW  35  33  90 NW8       30.10R WCI  29
BRISTOL        CLOUDY    37  34  89 NW7       30.14R WCI  32
KNOXVILLE      CLOUDY    38  32  79 W8        30.24R WCI  32
OAK RIDGE      CLOUDY    39  32  76 CALM      30.26R
CROSSVILLE     CLOUDY    33  30  88 NW12G20   30.24R FOG     WCI  24
NASHVILLE      MOSUNNY   37  31  78 NW9       30.36R WCI  30
$$

...KEY TO REMARKS...
VSB - VISIBILITY IN MILES
WCI - WIND CHILL INDEX
HX  - HEAT INDEX

$$



USA.gov is the U.S. government's official web portal to all federal, state and local government web resources and services.